GS-1

Last updated on Wed Sep 17 2025 00:02:51 GMT+0000 (Coordinated Universal Time)

1 56372U 23060C 25259.05322508 -.00000010 00000+0 00000+0 0 9992 2 56372 2.0140 83.0741 0002637 258.0928 97.6306 1.00294960 4788
UTC large
Height (km)
Speed (km/s)
/
Latitude / Longitude
Inclination (degrees)
Orbital Period (minutes)
Azimuth
Elevation
Range (km)
Doppler Factor

Next 0 passes for location: London (51.5072 / 0.1276)

Sorry there are no passes over London.